星链-32108 (STARLINK-32108 )

导读

STARLINK-32108是美国星链星座中的一颗低轨通信卫星,于2024年5月8日发射入轨,隶属于SpaceX公司的星链互联网卫星项目。该卫星承担着为全球多地提供高速低延迟卫星互联网服务的任务,是星链大规模组网中补充发射的组网卫星,进一步扩充了星链星座的覆盖范围与服务容量,推进了全球卫星互联网布局。

Basic Information
目录编号:
59682
目录名称:
STARLINK-32108
国际标识:
2024-086A
轨道中心:
EARTH
卫星名称:
星链-32108
卫星全名:
星链-32108 (STARLINK-32108 )
卫星状态:
在轨 (已飞行771 天)
发射日期:
2024-05-08 UTC
国别 :
美国 (US)
星等 :
--
Orbit Information
数据来源 国际轨道数据 AOE轨道数据
星历时间 2026-06-17T04:08:16+0800
1天前
查看轨道信息
2026-06-16T07:00:00+0800
2天前
查看轨道信息
半长轴 6861.131km 6861.183km
偏心率 0.0001491 0.0000046
轨道倾角 43.000° 42.995°
近地点辐角 272.635° 282.672°
升交点赤经 223.560° 228.536°
平近点角 87.433° 268.265°
近地点 481.971km 483.014km
远地点 484.017km 483.078km
周期 94.266分钟 94.267分钟
每日圈数 15.275986 15.275812
Detailed Information
固有亮度:
5
最大亮度:
1.5
卫星平台:
Starlink v2.0 mini
覆盖范围:
全球
运营商:
太空探索技术公司
运营商所在国:
美国
制造商(研发单位):
太空探索技术公司
制造商所在国:
美国
使用方式:
暂无
Satellite Introduction
星链(Starlink)计划是由太空探索技术公司(SpaceX)提出的一个巨型低轨卫星互联网星座项目,计划在2019年至2024年间在太空搭建由约1.2万颗卫星组成的“星链”网络,其中1584颗将部署在地球上空550千米处的近地轨道,并从2020年开始工作。该卫星仍在工作。
2D Orbit Map
3D Orbit Map
Orbit Altitude Analysis Chart
Orbit Inclination Analysis Chart
Orbit Comprehensive Analysis Chart
View Comprehensive Chart